This is the latest recevied weather packets stored in our database for station/object YD2CLX-13. If no packets are shown the sender has not sent any weather packets the latest 10 day(s).
| Time | Temp. | Humidity | Pressure | Rain* | Wind** | Luminosity | Snow |
|---|---|---|---|---|---|---|---|
| 1777537317 | 11.11° C | 69% | 796.7 hPa | 0 mm | - | - | - |
| 1777536700 | 11.11° C | 69% | 796.3 hPa | 0 mm | - | - | - |
| 1777536084 | 10.56° C | 69% | 796.5 hPa | 0 mm | - | - | - |
| 1777535469 | 10.56° C | 69% | 796.7 hPa | 0 mm | - | - | - |
| 1777534852 | 10.56° C | 69% | 796.9 hPa | 0 mm | - | - | - |
| 1777534237 | 10.56° C | 69% | 797 hPa | 0 mm | - | - | - |
| 1777533622 | 11.11° C | 69% | 797 hPa | 0 mm | - | - | - |
| 1777533007 | 10.56° C | 69% | 797.1 hPa | 0 mm | - | - | - |
| 1777532389 | 11.11° C | 69% | 796.9 hPa | 0 mm | - | - | - |
| 1777531772 | 11.11° C | 69% | 796.9 hPa | 0 mm | - | - | - |
| 1777531157 | 11.11° C | 69% | 796.8 hPa | 0 mm | - | - | - |
| 1777530542 | 11.11° C | 69% | 797.1 hPa | 0 mm | - | - | - |
| 1777529926 | 11.11° C | 69% | 797.4 hPa | 0 mm | - | - | - |
| 1777529311 | 11.11° C | 69% | 797.4 hPa | 0 mm | - | - | - |
| 1777528696 | 11.11° C | 69% | 797.2 hPa | 0 mm | - | - | - |
| 1777528081 | 11.11° C | 69% | 797.4 hPa | 0 mm | - | - | - |
| 1777527466 | 11.11° C | 69% | 797.6 hPa | 0 mm | - | - | - |
| 1777526851 | 11.11° C | 68% | 797.9 hPa | 0 mm | - | - | - |
| 1777526234 | 11.11° C | 68% | 797.8 hPa | 0 mm | - | - | - |
| 1777525618 | 10.56° C | 68% | 797.9 hPa | 0 mm | - | - | - |
| 1777524388 | 12.22° C | 68% | 798.1 hPa | 0 mm | - | - | - |
| 1777523772 | 12.22° C | 68% | 798.3 hPa | 0 mm | - | - | - |
| 1777523158 | 12.22° C | 68% | 798.2 hPa | 0 mm | - | - | - |
| 1777522543 | 12.78° C | 67% | 798.3 hPa | 0 mm | - | - | - |
| 1777521928 | 13.33° C | 67% | 798.3 hPa | 0 mm | - | - | - |
* Rain latest hour (hover to see other rain measurements)
** Current wind speed in m/s (hover to see current wind gust speed)